This is the latest recevied weather packets stored in our database for station/object SR9SMR. If no packets are shown the sender has not sent any weather packets the latest 1 day(s).
| Time | Temp. | Humidity | Pressure | Rain* | Wind** | Luminosity | Snow |
|---|---|---|---|---|---|---|---|
| 1778005625 | 15.56° C | 100% | 894.8 hPa | - | 7.15 m/s, 210° | - | - |
| 1778005564 | 15.56° C | 100% | 894.8 hPa | - | 7.15 m/s, 211° | - | - |
| 1778005501 | 15.56° C | 100% | 894.8 hPa | - | 6.71 m/s, 210° | - | - |
| 1778005376 | 15.56° C | 100% | 894.8 hPa | - | 6.71 m/s, 218° | - | - |
| 1778005253 | 15.56° C | 100% | 894.8 hPa | - | 6.26 m/s, 222° | - | - |
| 1778004944 | 15.56° C | 100% | 894.8 hPa | - | 6.71 m/s, 212° | - | - |
| 1778004769 | 15.56° C | 100% | 894.7 hPa | - | 6.71 m/s, 208° | - | - |
| 1778004648 | 16.11° C | 100% | 894.8 hPa | - | 6.26 m/s, 207° | - | - |
| 1778004640 | 15.56° C | 100% | 894.8 hPa | - | 6.26 m/s, 207° | - | - |
| 1778004526 | 15.56° C | 100% | 894.7 hPa | - | 5.81 m/s, 208° | - | - |
| 1778004405 | 15.56° C | 100% | 894.7 hPa | - | 5.81 m/s, 205° | - | - |
| 1778004337 | 15.56° C | 100% | 894.8 hPa | - | 6.26 m/s, 206° | - | - |
| 1778004283 | 15.56° C | 100% | 894.7 hPa | - | 6.26 m/s, 206° | - | - |
| 1778003729 | 16.11° C | 100% | 894.8 hPa | - | 6.26 m/s, 219° | - | - |
| 1778003426 | 16.11° C | 100% | 894.6 hPa | - | 6.26 m/s, 210° | - | - |
| 1778003122 | 16.67° C | 100% | 894.6 hPa | - | 6.26 m/s, 210° | - | - |
| 1778002988 | 16.11° C | 100% | 894.6 hPa | - | 6.71 m/s, 206° | - | - |
| 1778002927 | 16.67° C | 100% | 894.6 hPa | - | 7.15 m/s, 209° | - | - |
| 1778002865 | 16.67° C | 100% | 894.5 hPa | - | 7.15 m/s, 209° | - | - |
| 1778002740 | 16.67° C | 100% | 894.6 hPa | - | 6.71 m/s, 212° | - | - |
| 1778002617 | 16.67° C | 100% | 894.8 hPa | - | 6.71 m/s, 213° | - | - |
| 1778002493 | 16.67° C | 100% | 894.9 hPa | - | 5.81 m/s, 205° | - | - |
| 1778002369 | 16.67° C | 100% | 894.9 hPa | - | 4.02 m/s, 205° | - | - |
| 1778002308 | 16.67° C | 100% | 895.2 hPa | - | 4.47 m/s, 204° | - | - |
| 1778002123 | 16.67° C | 100% | 894.9 hPa | - | 5.81 m/s, 222° | - | - |
* Rain since midnight (hover to see other rain measurements)
** Current wind speed in m/s (hover to see current wind gust speed)